Weather History for Lawrenceville, IL

Change the Weather History Date:

Friday, May 17, 2013

  Actual Average Record
Temperature  
Mean Temperature 70 °F 66 °F  
Max Temperature 76 °F 77 °F 86 °F (1992)
Min Temperature 63 °F 56 °F 39 °F (2014)
Degree Days  
Heating Degree Days 0 3  
Month to date heating degree days 54 61  
Since 1 July heating degree days 4903 4652  
Cooling Degree Days 5 4  
Month to date cooling degree days 48 42  
Year to date cooling degree days 70 68  
Growing Degree Days 18 (Base 50)    
Moisture  
Dew Point 62 °F    
Average Humidity 79    
Maximum Humidity 93    
Minimum Humidity 64    
Precipitation  
Precipitation 0.00 in 0.19 in 2.23 in (1990)
Month to date precipitation 4.37 3.44  
Year to date precipitation 22.07 15.42  
Sea Level Pressure  
Sea Level Pressure 29.99 in    
Wind  
Wind Speed 6 mph (SE)    
Max Wind Speed 22 mph    
Max Gust Speed 29 mph    
Visibility 4 miles    
Events      
T = Trace of Precipitation, MM = Missing Value Source: NWS Daily Summary

Daily Weather History Graph

Daily Weather History Graph

Search for Another Location

Airport:

Trip Planner

Search our weather history database for the weather conditions in past years. The results will help you decide how hot, cold, wet, or windy it might be!

Date:

Astronomy

May. 17, 2013 Rise Set
Actual Time 5:36 AM CDT 7:57 PM CDT
Civil Twilight 5:06 AM CDT 8:28 PM CDT
Nautical Twilight 4:29 AM CDT 9:05 PM CDT
Astronomical Twilight 3:48 AM CDT 9:46 PM CDT
Moon 12:06 PM CDT (5/17) 12:51 AM CDT (5/17)
Length of Visible Light 15h 21m
Length of Day
14h 21m
Waxing Crescent, 45% of the Moon is Illuminated
May 17
Waxing Crescent
May 17
First Quarter
May 24
Full
May 31
Last Quarter
Jun 8
New

Hourly Weather History & Observations

Time (CDT) Temp. Dew Point Humidity Pressure Visibility Wind Dir Wind Speed Gust Speed Precip Events Conditions
12:27 AM 62.6 °F 60.8 °F 94% 29.98 in 1.0 mi Calm Calm - N/A   Clear
12:53 AM 63.0 °F 61.0 °F 93% 29.98 in 2.0 mi Calm Calm - N/A   Mostly Cloudy
1:01 AM 62.6 °F 60.8 °F 94% 29.98 in 1.8 mi Calm Calm - N/A   Mostly Cloudy
1:14 AM 64.4 °F 62.6 °F 94% 29.98 in 2.0 mi Calm Calm - N/A   Mostly Cloudy
1:53 AM 64.0 °F 62.1 °F 93% 29.97 in 2.5 mi Calm Calm - N/A   Clear
2:15 AM 64.4 °F 62.6 °F 94% 29.97 in 3.0 mi East 4.6 mph - N/A   Clear
2:53 AM 64.0 °F 62.1 °F 93% 29.97 in 3.0 mi Calm Calm - N/A   Clear
3:42 AM 64.4 °F 62.6 °F 94% 29.99 in 2.5 mi SSE 6.9 mph - N/A   Overcast
3:53 AM 64.9 °F 63.0 °F 93% 29.98 in 2.5 mi SSE 5.8 mph - N/A   Overcast
4:13 AM 64.4 °F 62.6 °F 94% 29.98 in 3.0 mi South 5.8 mph - N/A   Mostly Cloudy
4:53 AM 64.9 °F 62.1 °F 90% 29.98 in 4.0 mi SSE 4.6 mph - N/A   Clear
5:51 AM 64.4 °F 62.6 °F 94% 29.98 in 2.5 mi Calm Calm - N/A   Mostly Cloudy
5:53 AM 64.9 °F 62.1 °F 90% 29.98 in 2.5 mi Calm Calm - N/A   Mostly Cloudy
7:53 AM 66.9 °F 63.0 °F 87% 30.00 in 3.0 mi Calm Calm - N/A   Mostly Cloudy
8:53 AM 70.0 °F 64.0 °F 81% 30.01 in 5.0 mi South 3.5 mph - N/A   Haze
9:53 AM 72.0 °F 64.0 °F 76% 30.01 in 6.0 mi South 4.6 mph - N/A   Haze
10:53 AM 73.0 °F 64.0 °F 73% 30.02 in 6.0 mi South 8.1 mph - N/A   Haze
11:53 AM 75.0 °F 63.0 °F 66% 30.02 in 7.0 mi SSE 8.1 mph - N/A   Clear
12:53 PM 73.9 °F 63.0 °F 68% 30.02 in 6.0 mi SSE 10.4 mph - N/A   Haze
2:53 PM 72.0 °F 63.0 °F 73% 30.00 in 7.0 mi South 13.8 mph 21.9 mph N/A   Overcast
3:53 PM 72.0 °F 63.0 °F 73% 29.99 in 7.0 mi SSE 12.7 mph - N/A   Overcast
4:53 PM 70.0 °F 62.1 °F 76% 29.99 in 6.0 mi SSE 8.1 mph - N/A   Haze
5:53 PM 72.0 °F 63.0 °F 73% 29.98 in 6.0 mi SSE 8.1 mph - N/A   Haze
6:53 PM 71.1 °F 63.0 °F 75% 29.98 in 5.0 mi ESE 6.9 mph - N/A   Haze
7:53 PM 68.0 °F 63.0 °F 84% 29.99 in 4.0 mi ESE 5.8 mph - N/A   Haze
8:53 PM 68.0 °F 62.1 °F 81% 30.00 in 7.0 mi SE 6.9 mph - N/A   Overcast
9:53 PM 66.9 °F 62.1 °F 84% 30.01 in 6.0 mi East 4.6 mph - N/A   Haze
10:53 PM 66.0 °F 62.1 °F 87% 30.01 in 4.0 mi East 5.8 mph - N/A   Overcast
11:53 PM 64.0 °F 61.0 °F 90% 30.01 in 4.0 mi East 6.9 mph - N/A   Scattered Clouds